Location: ??????????
(44.2167°N, 135.5333°E)
Time: 14:14:47
(UTC+00:00)

Cosmos 292 Rocket - Pass Details

Date: 15 June 2025
Orbit: 664 x 683 km, 74.0° (Epoch: 15 July)

Event Time Altitude Azimuth Distance (km) Brightness Sun altitude
Exits shadow 17:14:52 26° 202° (SSW) 1,335 4.7 -15.6°
Maximum altitude 17:17:35 86° 289° (WNW) 690 3.7 -15.3°
Drops below altitude 10° 17:22:24 10° 20° (NNE) 2,135 7.6 -14.8°
Sets 17:24:43 0° 21° (NNE) 3,055 8.8 -14.6°
